Satellite: DRAGNSAT
Catalog number: 35690
Epoch time:      09302.52466149
Element set:      88
Inclination:      051.6418 deg
RA of node:       331.1149 deg
Eccentricity:    0.0006132
Arg of perigee:   057.9384 deg
Mean anomaly:     302.2219 deg
Mean motion:   15.85404673 rev/day
Decay rate:     4.7279e-04 rev/day^2
Epoch rev:            1441
Checksum:              293

Satellite: POLLUX
Catalog number: 35693
Epoch time:      09302.56192016
Element set:      91
Inclination:      051.6411 deg
RA of node:       331.3748 deg
Eccentricity:    0.0005113
Arg of perigee:   023.9182 deg
Mean anomaly:     336.1939 deg
Mean motion:   15.84474357 rev/day
Decay rate:     4.2693e-04 rev/day^2
Epoch rev:            1438
Checksum:              291

Satellite: CASTOR
Catalog number: 35694
Epoch time:      09301.92262822
Element set:    0086
Inclination:      051.6431 deg
RA of node:       335.3803 deg
Eccentricity:    0.0004745
Arg of perigee:   021.4335 deg
Mean anomaly:     338.6862 deg
Mean motion:   15.82239583 rev/day
Decay rate:     2.1513e-04 rev/day^2
Epoch rev:           01427
Checksum:              285

Satellite: METEOR-M
Catalog number: 35865
Epoch time:      09301.82245358
Element set:      40
Inclination:      098.7936 deg
RA of node:       351.8743 deg
Eccentricity:    0.0001958
Arg of perigee:   334.6312 deg
Mean anomaly:     025.4730 deg
Mean motion:   14.21827271 rev/day
Decay rate:       1.76e-06 rev/day^2
Epoch rev:             584
Checksum:              296

Satellite: STERKH-2
Catalog number: 35866
Epoch time:      09301.80888730
Element set:      42
Inclination:      098.7947 deg
RA of node:       351.8992 deg
Eccentricity:    0.0002698
Arg of perigee:   326.0971 deg
Mean anomaly:     034.0033 deg
Mean motion:   14.22298067 rev/day
Decay rate:       1.78e-06 rev/day^2
Epoch rev:             584
Checksum:              322

Satellite: FREGAT-I
Catalog number: 35867
Epoch time:      09302.58823812
Element set:      52
Inclination:      097.3674 deg
RA of node:       351.8742 deg
Eccentricity:    0.0011213
Arg of perigee:   135.7595 deg
Mean anomaly:     224.4467 deg
Mean motion:   15.22744716 rev/day
Decay rate:      2.267e-05 rev/day^2
Epoch rev:             637
Checksum:              306

/EX



_______________________________________________
Via the Keps mailing list courtesy of AMSAT-NA
http://amsat.org/mailman/listinfo/keps

--- ViaMAIL!/WC v1.60d
 * Origin: Chowdanet (401-724-4410) telnet://chowdanet.com  (1:323/120)